Theta_e
349 346 343 344 345 345 345 346 349 349 346 346 345 344 344 343 343 344 344 344 344 344 344 344 344 344 345 345 346 346 346 346 347 347 348 348 348 348 349 349 348 346 342 343 345 342 340 340 342 343 342 343 343 340 340 342 342 342 344 343 341 341 341 340 338 337 336 336 335 337 339 339 340 341 341 341 341 342 341 340 340 340 340 340 340
350 348 344 344 345 346 345 346 349 349 347 347 346 343 343 343 342 342 343 344 344 344 343 342 342 342 343 345 345 345 345 346 346 348 348 347 348 347 349 350 349 348 345 344 343 341 339 338 339 343 343 342 342 341 340 341 342 343 343 343 342 341 342 342 340 339 337 335 334 335 337 338 339 340 340 340 339 340 339 338 338 338 339 338 338
350 349 347 346 346 346 345 345 348 348 346 346 346 345 345 344 343 341 342 344 343 342 342 341 342 341 342 344 344 344 345 345 347 348 348 348 349 349 347 348 349 349 346 345 345 343 341 340 338 340 343 344 342 340 340 339 340 341 342 343 343 342 343 343 342 340 339 337 335 334 335 336 336 336 337 336 336 336 335 335 335 335 336 336 337
350 349 347 346 346 345 346 347 346 343 344 346 347 347 347 347 345 343 343 344 342 339 338 337 337 338 340 342 343 344 346 346 346 348 349 349 349 349 348 347 348 350 348 345 345 345 345 344 342 340 341 343 344 342 341 340 337 338 340 341 341 342 343 343 342 341 340 339 336 335 334 333 333 333 333 333 333 333 333 333 333 334 334 334 336
347 346 343 343 343 343 346 347 347 347 348 348 348 346 345 346 346 346 347 348 345 343 342 339 335 334 336 339 342 344 345 346 347 347 348 349 349 349 349 348 348 349 349 347 345 344 345 346 345 344 342 343 343 342 342 342 338 334 336 339 339 341 342 342 342 341 340 339 337 336 335 333 333 333 333 333 333 333 333 333 333 333 334 334 335
346 344 343 344 344 345 347 348 349 351 351 350 348 345 343 342 343 345 347 347 345 345 345 342 337 335 335 336 341 346 348 347 348 348 348 348 348 349 349 349 349 349 350 350 348 345 344 344 345 345 345 344 343 342 340 342 341 335 332 335 337 339 341 341 342 341 340 339 337 336 335 334 334 334 334 335 335 335 335 335 335 335 335 336 336
350 349 348 349 350 351 351 351 351 351 351 350 349 348 346 344 343 344 345 346 346 346 345 342 338 336 337 339 341 345 349 350 350 349 349 349 348 348 349 349 348 348 349 351 351 349 346 343 343 344 345 345 344 342 340 340 341 338 334 333 335 337 339 341 341 340 340 339 337 336 335 335 335 335 335 336 336 336 336 336 336 336 336 336 335
354 354 353 353 353 353 354 352 352 352 352 351 350 349 348 347 347 347 347 348 347 347 346 344 343 341 340 343 343 343 346 349 349 349 349 350 349 349 349 349 349 348 348 349 349 350 349 346 344 343 344 345 345 343 341 340 339 338 335 334 334 335 337 339 340 340 339 339 338 337 336 336 336 336 336 336 336 335 335 335 335 335 336 336 335
354 354 354 354 353 353 354 354 354 353 352 351 349 348 348 348 348 348 348 348 347 347 346 345 346 345 343 340 338 339 345 349 350 349 349 350 350 350 350 350 349 348 348 348 348 348 349 349 347 345 343 343 345 345 343 340 339 337 335 334 334 334 335 337 338 340 339 339 338 337 336 336 336 336 336 336 335 334 334 334 334 334 335 335 335
349 350 351 351 352 352 353 353 353 352 351 350 348 348 348 349 349 348 348 347 347 346 345 345 346 346 344 340 339 341 345 348 349 350 349 349 349 350 351 349 348 349 348 348 349 348 348 349 350 349 346 343 343 345 345 343 340 338 335 334 333 333 334 334 336 338 339 339 339 337 337 336 336 336 336 336 335 334 334 333 333 334 334 335 335
346 346 346 348 350 350 350 350 349 349 348 347 346 346 347 347 347 347 347 346 346 346 346 345 345 345 344 344 344 345 346 347 349 349 349 349 349 351 351 349 347 348 348 348 348 348 348 349 350 351 350 346 344 344 346 345 343 340 338 336 334 334 334 334 334 335 337 338 338 337 336 336 336 336 335 336 335 335 335 335 335 335 335 335 336
347 347 347 348 348 347 347 347 347 346 345 345 345 345 346 345 345 345 345 344 344 344 344 343 343 344 343 343 342 341 342 342 343 346 348 348 349 350 350 349 348 348 348 348 348 348 349 349 349 350 351 350 348 346 346 346 345 343 341 339 337 336 335 335 334 334 335 336 336 336 335 336 335 336 335 335 336 336 337 337 337 337 337 337 337
348 349 350 350 349 348 347 347 347 346 344 344 344 344 344 344 344 343 343 343 342 342 342 342 343 343 343 343 342 340 340 339 338 341 345 348 348 349 349 349 349 350 349 348 348 348 349 350 349 348 349 350 351 350 348 348 347 345 344 342 340 338 338 337 336 335 335 335 335 335 334 334 335 335 335 336 336 338 338 338 338 338 338 338 338
348 348 349 350 350 350 349 348 348 347 345 344 344 344 344 343 343 343 342 342 342 342 342 343 344 344 344 344 345 345 345 344 343 343 345 348 349 348 349 349 350 350 350 350 349 348 349 350 350 349 348 348 352 353 351 350 349 348 346 345 343 341 340 338 338 338 337 336 335 335 334 333 334 334 336 337 337 338 339 339 340 341 341 340 340
347 347 347 347 347 348 349 349 348 348 347 346 346 345 344 344 344 343 343 342 342 342 343 343 343 343 344 345 346 346 347 347 347 347 347 349 349 348 347 347 348 348 349 350 350 349 348 350 351 350 348 348 352 355 353 351 350 349 347 346 345 343 341 340 339 339 338 337 337 336 336 335 335 335 336 337 338 339 339 341 342 342 342 342 343
346 345 345 345 345 346 347 347 346 346 347 347 347 346 345 345 345 344 344 343 343 344 343 343 342 341 342 344 345 346 347 346 345 346 346 348 349 348 348 347 346 346 345 347 349 350 349 350 350 351 350 348 351 355 355 353 351 349 347 346 346 345 344 342 341 340 339 338 338 338 337 336 336 336 336 336 338 339 340 341 342 342 342 343 344
344 344 344 344 344 346 346 346 345 345 345 346 347 348 347 345 344 344 344 344 345 344 344 343 343 343 342 342 344 346 347 344 343 343 342 344 345 345 346 347 347 345 344 345 346 348 349 350 350 350 350 349 350 354 355 354 353 351 348 347 346 345 345 344 344 343 341 339 338 337 337 337 337 337 336 336 338 339 340 341 341 342 344 345 345
342 343 344 344 344 345 345 346 346 345 345 345 347 348 347 345 345 345 345 345 345 343 344 343 343 343 342 342 343 344 344 343 343 344 343 342 343 341 342 344 347 345 344 346 345 345 346 349 350 350 350 350 349 352 354 354 355 354 350 348 347 347 346 345 345 345 344 342 338 336 336 336 337 337 337 337 338 339 340 341 342 343 345 345 344
342 343 344 344 344 345 344 345 345 345 344 344 345 346 346 344 344 345 345 344 343 342 343 343 343 343 342 343 344 343 343 342 341 343 343 343 343 342 343 344 345 345 345 345 344 345 346 347 349 348 349 349 348 350 354 354 355 354 352 350 348 348 348 347 347 346 346 345 340 336 335 336 336 337 338 337 337 338 340 341 343 344 344 344 344
342 342 343 343 343 343 343 343 343 343 342 342 343 344 343 342 343 344 343 343 343 343 344 343 343 343 342 343 344 344 344 344 342 341 342 344 343 342 344 344 343 344 345 344 342 344 345 345 346 347 347 348 347 349 351 352 354 354 353 352 350 349 349 348 348 347 346 346 343 338 336 335 335 336 336 337 337 338 341 342 344 344 344 344 344
341 341 342 342 341 341 341 341 341 341 341 341 341 341 341 341 342 342 341 342 343 343 343 342 342 342 342 343 343 344 344 343 343 343 342 344 343 342 343 344 343 343 344 344 343 343 343 343 342 342 345 347 347 348 348 349 351 353 352 352 352 350 349 349 348 348 347 346 345 342 338 336 335 335 336 336 338 339 341 343 344 343 343 343 344
340 339 340 340 339 340 340 339 340 339 339 339 338 338 338 339 340 340 340 340 341 341 341 341 341 340 341 342 342 343 343 343 343 343 342 342 342 342 342 343 343 341 341 341 343 344 345 343 341 339 341 343 345 346 347 347 348 349 350 351 352 352 351 351 350 349 348 347 346 345 342 338 335 335 335 336 338 340 341 343 344 343 343 343 343
339 339 339 338 338 340 340 339 339 338 338 338 337 337 337 338 338 338 338 338 339 340 340 339 339 340 340 340 340 341 341 341 342 342 341 340 341 341 341 341 341 341 341 340 341 343 346 345 344 342 342 342 342 344 345 346 345 346 348 351 352 352 352 352 351 350 349 348 347 345 344 341 338 336 336 337 339 340 341 342 344 343 342 342 342
338 339 338 338 338 339 340 339 339 338 338 337 338 338 338 338 338 338 337 337 337 338 339 339 339 339 339 339 339 339 339 340 340 341 340 339 340 341 341 341 341 340 340 340 340 342 344 345 344 342 340 339 339 339 340 343 344 345 347 350 351 351 352 353 353 351 350 349 347 346 345 343 342 341 340 340 340 340 340 341 343 343 343 342 342
338 338 339 338 339 339 339 339 338 338 338 338 337 337 337 337 337 337 337 336 337 337 338 339 338 338 337 337 337 337 338 338 339 339 339 339 340 341 340 339 340 340 338 339 340 341 343 344 343 339 336 335 336 337 337 341 345 345 347 349 350 351 352 352 353 352 351 350 349 348 347 346 345 343 342 341 340 339 339 340 342 342 342 342 341
338 338 339 339 339 339 339 338 338 338 338 338 337 337 337 336 336 336 336 336 336 337 337 337 337 337 337 336 335 336 336 337 338 338 338 338 338 340 339 338 339 339 339 339 340 341 343 343 342 339 336 335 335 336 337 340 344 346 346 347 348 349 351 351 351 352 352 351 350 349 348 347 346 344 342 340 338 337 338 338 339 341 341 341 340
339 339 338 338 338 338 338 338 338 337 337 337 337 336 336 336 336 336 336 335 335 336 336 335 336 337 336 335 334 335 335 335 337 338 338 338 338 338 339 338 338 339 339 339 339 340 340 342 342 340 337 335 333 334 335 335 339 344 346 345 345 347 348 349 350 351 351 351 351 350 349 347 346 345 344 342 338 336 335 336 337 338 339 338 338
338 338 338 338 338 338 338 338 338 337 337 336 336 335 335 335 335 335 335 335 335 335 334 334 335 335 335 335 335 334 334 333 334 336 336 337 337 338 338 338 339 339 338 339 338 338 338 340 342 341 339 338 336 335 335 335 336 342 346 346 345 345 346 347 348 350 350 350 349 350 350 349 347 346 345 344 341 338 336 336 335 335 335 335 335
337 337 337 337 337 337 337 337 337 337 336 336 335 335 335 334 335 335 335 335 334 334 333 334 334 334 335 335 335 334 333 333 333 334 335 335 335 336 337 337 337 338 339 339 338 337 337 338 338 339 340 340 339 338 338 337 336 340 347 349 347 345 346 346 347 349 349 349 348 349 350 350 348 347 346 345 343 341 339 338 337 336 335 335 335
336 336 336 336 336 336 336 336 336 335 335 335 334 334 334 334 334 335 336 335 334 334 335 335 334 334 334 334 333 332 332 333 333 333 333 333 333 334 335 336 336 337 338 338 338 337 336 337 337 337 338 338 339 340 341 340 338 340 348 350 347 346 346 346 347 347 347 347 347 348 350 350 349 347 345 345 345 344 342 341 340 339 338 338 337
335 335 335 336 336 336 335 335 335 334 334 334 334 333 334 334 335 336 337 336 335 335 336 336 335 333 333 332 332 332 331 332 332 332 332 332 332 332 332 334 335 336 336 337 338 337 336 337 337 337 337 337 337 339 341 343 343 344 348 348 346 345 345 346 347 347 346 346 346 347 349 349 347 343 341 342 343 344 344 343 343 342 342 341 340
334 335 335 335 335 335 335 335 335 335 334 334 335 335 335 335 335 336 337 337 336 336 336 336 335 333 331 332 331 331 331 331 331 331 331 330 330 330 331 332 333 334 335 336 337 336 335 336 337 337 337 337 336 337 338 340 344 346 347 346 344 343 343 343 344 345 346 345 346 347 348 348 346 342 339 341 342 343 344 344 344 344 343 342 341
335 335 335 335 335 335 335 335 335 335 335 335 335 335 335 335 335 336 336 336 335 335 335 336 335 332 331 331 331 331 331 330 330 330 329 328 328 329 329 330 330 331 332 334 335 335 335 335 337 337 337 337 338 337 336 337 343 348 347 344 342 342 342 342 343 345 345 346 346 347 347 348 347 345 341 342 343 345 344 344 344 344 344 343 341
334 334 334 334 334 334 334 335 335 335 335 335 335 335 335 334 335 335 336 336 335 334 335 335 334 331 331 331 330 331 330 329 329 328 326 325 326 326 327 327 329 329 330 331 332 333 334 335 336 337 338 338 338 338 337 337 341 347 348 345 343 343 342 342 343 344 345 346 346 346 347 348 348 348 345 343 343 344 345 345 345 344 344 342 340
332 332 332 333 333 333 334 334 335 335 335 335 336 336 334 333 333 334 335 336 335 335 335 334 333 331 330 330 330 330 329 328 328 325 324 324 324 325 325 326 328 328 328 329 330 331 333 334 335 336 337 338 339 339 338 337 338 343 347 346 343 342 342 342 342 343 345 348 347 346 346 347 348 349 347 345 343 344 345 345 344 344 342 341 339
330 331 331 332 332 332 332 333 333 333 334 335 337 336 334 332 332 332 333 334 335 335 334 333 332 330 330 329 329 329 328 327 326 324 323 323 323 323 324 326 326 327 327 327 328 329 331 334 335 335 336 338 339 339 339 338 338 341 346 346 342 341 341 342 343 345 346 347 347 346 346 348 349 349 347 346 346 346 346 344 343 342 340 339 338
331 332 331 330 330 330 331 331 331 331 331 333 336 335 332 331 332 332 332 333 334 334 334 333 331 330 329 329 329 328 328 327 325 324 324 324 324 324 324 325 325 325 325 326 326 327 329 332 335 336 336 338 339 340 340 340 340 341 345 346 343 341 341 341 343 346 346 345 346 347 347 348 350 350 348 347 347 348 346 344 342 341 340 340 340
332 331 330 330 330 330 330 329 330 330 330 331 334 334 332 331 332 331 330 331 333 333 333 332 331 330 329 329 328 328 328 327 325 325 326 325 325 324 323 324 325 325 325 325 325 326 327 330 333 335 336 337 339 339 340 340 341 342 344 346 345 344 342 341 343 345 345 344 344 346 347 350 352 351 350 348 349 349 347 344 343 342 342 342 342
333 332 331 330 330 330 329 330 330 330 330 330 332 333 333 333 331 330 329 331 333 333 333 332 330 329 329 328 328 328 328 325 323 324 324 324 324 324 323 324 324 324 325 324 325 325 326 328 331 334 336 336 338 339 339 340 341 341 343 345 346 347 345 344 343 344 343 343 344 346 348 351 351 350 350 349 349 348 346 344 344 343 343 342 342
333 333 332 331 330 330 330 330 330 330 330 330 331 335 337 336 333 330 330 332 332 332 333 331 330 329 328 328 328 328 327 324 319 320 322 323 324 324 324 324 324 324 324 324 324 325 325 327 330 333 335 336 337 338 339 339 339 341 342 342 345 348 348 346 345 345 344 345 347 349 350 351 351 351 351 350 349 348 346 345 345 343 343 343 343
334 333 332 331 331 331 330 330 330 329 330 330 332 336 338 337 335 333 331 331 331 332 332 331 330 329 329 328 328 328 328 325 319 319 321 323 325 325 325 324 324 324 324 324 324 325 325 327 329 331 334 336 336 337 339 340 339 340 341 341 343 346 347 347 347 346 346 348 349 350 350 350 350 351 351 350 348 347 346 345 344 344 344 344 344
335 333 332 331 331 330 329 329 329 329 331 332 332 334 334 334 334 334 333 332 331 331 332 330 329 329 328 328 328 328 329 328 324 322 322 323 325 326 326 325 325 324 323 323 324 325 325 326 327 330 333 335 336 337 338 339 340 340 341 341 342 343 345 346 347 347 347 349 350 350 350 349 349 350 350 349 347 346 345 345 345 344 345 345 344
335 333 332 330 330 329 329 329 329 330 331 331 331 331 331 332 332 332 332 331 330 330 331 329 328 328 328 328 328 328 328 329 328 325 323 324 327 328 326 323 322 322 323 323 324 324 325 325 326 327 330 332 334 336 337 339 340 340 340 340 341 342 344 345 347 347 346 348 350 351 350 349 349 351 351 349 347 346 345 345 345 344 344 344 344
335 333 331 330 329 329 329 329 329 330 330 329 328 328 329 330 330 329 328 328 329 330 330 329 328 328 328 328 329 328 328 330 329 326 325 327 329 328 324 320 319 320 322 323 323 323 324 325 325 326 328 329 330 333 335 337 339 340 340 340 341 343 344 344 346 347 346 347 350 351 350 349 349 351 352 351 349 348 346 346 345 345 345 344 343
334 332 330 329 328 328 329 329 329 329 329 328 328 327 327 328 329 328 327 326 328 330 331 330 328 328 328 329 330 329 329 329 329 328 329 329 329 326 322 319 319 320 321 321 322 323 323 324 325 326 327 328 329 331 333 336 338 339 340 341 341 343 344 343 344 346 346 346 349 351 351 350 350 351 352 352 352 351 350 349 347 346 346 345 343
333 331 329 329 328 328 330 330 329 329 329 329 330 328 327 326 326 327 328 328 329 331 332 330 328 328 328 329 329 329 328 328 328 328 330 330 328 325 321 319 319 320 320 321 322 323 323 324 324 325 326 327 329 330 331 333 336 338 339 341 342 342 342 343 344 345 345 346 349 351 350 350 351 351 351 351 352 354 353 352 350 348 346 345 344
333 330 329 329 329 329 331 331 330 330 330 329 329 328 327 326 326 326 326 327 330 332 331 329 328 328 328 328 328 327 327 327 327 328 330 330 329 326 321 318 319 319 320 322 323 323 323 323 324 324 325 325 326 328 330 332 335 337 339 340 341 341 341 342 344 344 344 345 347 349 349 349 350 351 351 350 351 353 354 353 353 351 349 346 344
333 330 329 329 329 328 329 330 329 330 330 328 328 328 327 327 327 326 325 326 330 333 331 329 329 329 327 327 327 327 327 327 327 328 330 330 329 326 322 319 319 320 321 322 323 323 323 323 323 324 324 324 324 325 327 330 333 335 337 339 339 339 340 341 342 343 344 345 345 346 347 348 350 350 350 350 350 352 353 354 354 354 353 350 347
333 330 329 329 328 328 328 328 328 329 330 329 328 327 327 327 327 325 325 328 332 333 332 330 330 328 326 325 326 327 327 327 327 328 330 330 329 326 322 319 319 320 321 322 323 323 323 324 324 324 324 325 325 324 324 326 328 331 334 338 339 339 341 341 341 342 344 344 344 345 345 346 350 351 350 350 350 351 351 353 354 354 354 352 349
332 330 329 329 328 329 329 328 328 329 329 328 327 327 328 327 327 326 325 327 330 332 332 331 329 328 326 326 326 326 326 326 327 330 331 329 327 323 320 320 321 322 322 322 323 323 323 324 325 325 327 327 327 326 324 324 326 327 330 335 340 340 340 341 341 343 344 344 344 346 345 346 348 349 349 350 350 350 350 352 354 354 352 351 350
331 331 330 328 328 329 328 328 328 328 328 328 327 328 328 327 326 326 325 327 329 331 331 330 329 328 327 326 325 325 326 328 329 330 328 326 324 322 321 321 322 323 323 322 323 323 324 325 325 325 328 330 329 327 326 325 325 326 328 332 338 340 340 340 341 343 345 344 344 346 347 347 347 347 348 348 349 350 351 351 353 352 350 350 350
Wind_Speed
7 8 8 9 9 8 8 7 8 9 10 9 10 11 11 11 11 10 9 9 7 5 6 7 9 11 11 11 11 13 14 16 14 9 9 11 10 11 14 14 14 14 15 16 17 17 16 15 15 16 17 17 17 17 18 18 18 18 17 17 16 16 15 15 15 15 14 14 14 14 13 12 12 11 11 10 10 9 8 8 8 8 7 7 6
7 9 10 11 10 10 10 8 9 11 11 9 11 11 10 10 10 10 11 10 9 7 7 7 8 10 11 13 13 12 14 16 13 8 9 12 12 13 15 17 16 16 16 17 17 18 17 15 15 17 18 18 19 19 19 19 19 19 18 18 17 17 17 16 16 15 15 15 14 14 14 13 12 12 11 11 10 10 9 9 9 8 8 8 8
9 11 11 11 10 11 12 11 11 13 14 12 11 11 10 11 10 10 10 11 10 8 7 7 8 10 11 12 13 12 14 14 12 10 10 13 15 14 14 16 19 19 18 18 19 19 18 17 16 16 18 20 20 20 20 20 20 20 19 19 19 18 18 17 17 17 16 16 15 15 14 14 13 13 12 12 11 11 10 10 9 9 9 9 9
9 11 12 12 12 12 12 12 15 17 17 14 11 11 11 12 13 13 13 13 13 11 10 12 13 13 13 12 11 11 14 15 14 14 15 16 16 14 14 16 19 21 20 19 20 20 20 19 18 18 18 20 21 22 22 22 21 21 21 21 20 20 19 19 19 18 18 17 16 16 15 15 14 14 13 13 12 12 11 11 10 10 10 10 10
11 13 14 14 15 15 14 14 17 18 16 15 15 16 16 15 15 15 13 12 13 13 13 15 17 18 18 16 13 12 14 16 16 17 18 18 16 15 15 15 17 20 21 20 20 21 22 21 21 20 19 20 21 23 24 24 23 23 23 23 22 21 21 20 20 19 19 18 17 17 16 16 15 14 14 13 13 12 12 11 11 11 11 11 11
12 14 14 15 16 16 16 15 16 16 15 16 19 21 21 21 18 16 15 15 16 16 16 17 18 19 19 18 16 14 14 16 18 19 20 19 18 18 18 17 18 19 20 21 21 22 23 23 23 22 21 21 22 23 24 25 25 25 24 24 24 23 22 22 21 21 20 20 19 18 17 17 16 15 15 14 14 13 13 12 12 12 11 11 11
14 15 16 16 16 14 15 16 16 17 18 17 18 20 20 20 19 17 18 18 18 18 17 18 19 19 18 16 15 14 14 16 18 19 20 20 21 21 20 19 19 21 21 21 22 23 24 25 24 24 23 23 23 24 24 26 27 27 26 26 25 25 24 23 23 22 21 21 20 19 18 18 17 17 16 15 15 14 14 13 13 13 12 12 12
15 16 17 16 15 14 15 16 16 17 19 18 16 17 16 16 15 14 14 15 15 15 15 16 18 18 16 14 15 16 17 18 19 20 20 20 21 21 22 21 22 22 22 22 23 24 25 26 26 26 25 25 25 26 26 26 27 29 28 28 27 26 25 25 24 23 23 22 21 20 20 19 18 18 17 17 16 15 15 15 14 14 14 13 13
11 12 13 14 13 14 14 15 16 17 18 17 15 15 15 15 15 13 13 14 15 15 15 16 17 18 19 19 20 19 20 19 19 20 21 21 22 22 23 24 24 24 23 23 24 24 24 25 27 27 26 26 27 28 28 28 28 29 30 30 29 28 27 26 26 25 24 24 23 22 21 21 20 19 18 18 17 17 16 16 16 15 15 15 15
9 10 10 10 10 11 13 13 15 16 16 16 14 14 15 15 16 15 14 14 15 16 16 16 16 17 19 21 20 18 19 20 20 21 22 22 22 23 25 26 27 26 26 25 24 24 24 24 25 27 28 27 27 29 30 31 30 30 31 31 31 31 30 28 27 27 26 25 25 24 23 23 22 21 20 20 19 18 18 17 16 16 16 16 16
8 9 8 8 8 10 10 10 11 13 14 13 13 13 13 13 14 16 16 16 16 18 18 17 18 18 18 19 18 17 17 18 19 20 22 23 24 25 26 28 29 28 27 26 26 26 26 24 24 26 29 29 28 29 31 32 33 33 32 32 33 32 31 30 29 28 28 27 27 26 25 24 23 23 22 21 20 20 19 18 18 17 17 17 17
8 8 8 8 8 9 8 8 10 12 12 12 12 13 12 12 12 13 14 15 17 18 19 19 19 20 21 23 24 22 22 22 22 23 23 23 24 26 26 27 29 30 30 29 28 28 28 27 25 26 28 30 30 30 32 33 35 35 35 34 34 33 33 32 31 30 30 29 28 28 27 26 25 24 23 23 22 21 20 19 18 17 17 17 17
8 8 7 8 9 8 8 8 9 10 11 11 12 12 12 12 12 13 13 14 15 16 16 16 16 16 17 19 22 23 23 25 26 26 26 25 25 26 27 26 26 28 30 30 30 30 29 28 28 28 28 29 31 31 32 34 36 37 37 36 35 35 35 34 33 32 32 31 30 29 29 28 27 26 25 24 23 22 21 20 19 18 18 17 17
6 8 9 9 10 10 10 10 10 11 12 11 11 11 13 13 13 13 14 14 15 16 15 14 12 12 12 11 13 16 18 21 23 24 24 24 24 25 26 26 27 27 28 30 32 32 31 28 28 29 28 28 31 32 33 34 37 39 39 38 38 37 36 36 35 35 34 33 32 31 30 30 29 28 27 25 24 23 22 21 20 19 19 19 19
7 8 10 10 11 12 13 12 12 13 14 14 14 14 14 14 13 13 14 13 15 16 15 14 14 13 11 7 6 7 9 13 19 21 21 21 23 25 25 25 27 27 26 27 29 31 31 28 27 29 31 30 30 31 33 34 36 39 40 40 40 39 38 37 37 37 36 35 34 33 32 31 30 29 28 26 25 24 23 22 21 21 20 20 21
7 8 9 9 10 10 11 11 11 12 13 15 17 17 18 17 15 14 14 13 13 14 14 13 13 12 7 5 6 5 4 5 8 13 16 17 20 22 23 24 24 22 21 22 24 27 29 29 28 28 30 31 31 31 32 33 35 37 39 41 41 40 39 39 38 38 38 37 36 35 34 33 32 31 29 28 27 25 24 24 23 22 22 22 22
6 8 8 8 9 9 9 9 9 10 12 13 15 16 17 16 15 13 13 14 13 14 15 14 13 11 8 6 6 4 3 5 7 7 9 12 14 16 18 20 23 24 23 22 22 22 24 24 26 28 29 30 30 31 33 32 33 35 38 40 41 41 41 40 40 39 38 39 38 37 36 34 33 32 30 29 28 27 26 25 24 23 23 22 22
7 8 7 8 9 9 9 8 9 9 10 12 13 13 13 13 13 12 11 13 14 14 17 17 14 13 12 12 11 9 7 8 7 5 8 11 13 16 18 18 19 22 23 23 23 22 23 23 23 26 28 29 30 30 32 33 33 34 36 38 39 41 41 41 41 41 40 39 39 39 38 36 35 34 32 31 30 29 28 27 25 25 24 23 23
6 6 7 7 8 8 9 9 9 9 10 11 12 12 12 12 11 11 11 12 12 13 14 15 14 13 12 13 15 16 15 11 6 4 6 9 13 17 18 16 16 18 20 21 22 22 25 26 26 26 26 25 26 27 29 31 33 33 35 37 38 39 40 40 41 42 41 40 40 41 39 38 37 36 34 33 31 30 29 28 26 25 25 24 23
6 6 5 5 7 7 8 9 9 9 9 10 10 11 13 12 10 10 11 11 11 12 12 13 14 14 13 12 13 14 14 13 11 9 5 5 10 14 15 16 17 18 18 19 21 22 24 25 28 30 29 25 25 27 27 28 32 35 35 36 37 38 38 38 40 41 42 42 42 42 41 40 39 37 36 34 33 31 30 29 28 26 25 24 24
6 7 6 5 7 7 8 9 9 9 9 9 10 10 12 12 10 10 11 11 12 13 14 15 15 15 14 13 13 13 13 13 13 12 9 6 6 7 10 13 15 17 18 19 21 22 22 21 24 29 31 30 31 33 31 28 29 33 34 35 36 38 38 37 37 39 41 42 43 43 42 41 40 39 38 36 35 33 31 30 29 28 27 26 25
7 8 8 8 7 6 7 8 8 9 9 10 10 10 11 11 10 11 11 12 13 14 15 16 16 16 16 16 15 14 12 11 11 10 8 7 6 7 10 12 11 15 17 19 20 20 20 20 20 23 27 30 34 36 36 34 33 33 34 36 35 36 37 36 36 37 38 41 42 43 43 42 41 40 39 37 36 35 33 32 31 30 29 28 27
7 8 8 8 8 7 7 8 8 9 9 10 11 11 11 10 11 11 12 12 13 14 15 16 15 16 16 16 15 14 13 11 11 12 9 6 6 7 10 13 14 16 17 19 19 18 17 18 19 21 23 27 30 31 34 37 38 38 36 36 34 34 36 36 36 36 37 38 40 42 43 43 42 40 39 39 38 36 35 33 33 32 31 30 29
7 7 8 7 8 7 7 7 7 8 9 10 11 11 12 11 11 11 12 12 12 12 14 14 14 14 15 15 15 15 15 14 14 14 12 12 11 7 10 15 14 15 20 21 21 20 19 20 22 23 24 26 29 30 32 34 37 39 39 37 35 33 34 36 37 37 37 37 38 39 41 42 42 41 40 40 39 38 36 35 34 33 33 32 31
7 7 7 7 8 7 7 7 8 8 9 9 10 11 11 12 12 11 12 12 12 12 12 13 12 13 14 15 15 15 16 16 16 15 15 17 15 9 11 16 12 13 20 21 20 21 21 24 26 27 27 28 28 29 29 31 34 37 36 34 34 34 33 33 35 37 38 38 38 38 38 40 41 41 41 40 40 39 38 37 36 35 34 33 33
7 7 7 8 8 8 8 8 8 8 9 9 10 10 10 11 11 12 12 11 11 11 12 13 12 12 14 15 16 15 16 17 17 17 17 17 16 12 11 13 13 15 18 19 19 19 21 25 26 26 26 26 27 27 27 28 32 37 35 32 33 34 34 34 34 36 39 40 40 40 39 39 39 40 40 40 40 40 39 38 37 36 35 35 34
7 8 8 8 8 8 8 9 9 9 9 10 10 10 11 11 11 12 12 11 10 11 11 12 12 13 13 15 16 16 17 18 18 19 20 19 19 18 14 10 10 12 12 14 17 19 23 25 24 24 26 28 29 28 28 28 29 34 37 36 37 35 35 35 33 33 38 41 41 41 40 40 40 40 40 40 39 39 39 39 38 38 37 36 35
8 8 8 8 8 9 9 10 10 10 10 11 11 11 11 11 11 12 11 10 10 10 11 11 12 13 14 14 15 17 19 20 20 20 21 21 21 22 20 14 9 8 8 9 10 14 22 24 21 23 25 27 28 26 26 27 27 30 33 36 40 39 36 36 35 34 37 39 41 41 41 40 41 41 41 41 41 40 40 39 39 38 38 37 36
7 8 8 9 10 10 11 11 10 11 11 11 11 11 12 12 11 11 11 10 10 10 11 12 13 13 13 14 15 18 20 20 21 20 20 22 22 22 22 20 16 10 7 8 8 10 18 21 20 22 23 23 23 22 23 25 25 28 31 33 37 39 37 37 37 36 37 38 39 42 42 40 40 41 41 42 42 41 40 40 39 39 38 38 37
7 8 9 10 11 11 12 12 12 12 12 11 11 12 12 12 12 11 11 9 9 10 11 11 12 12 12 13 15 18 20 20 20 20 20 21 22 22 23 22 21 16 11 10 11 14 19 21 22 24 24 23 21 21 23 24 25 28 31 33 34 36 37 37 37 37 38 37 37 41 43 42 41 41 41 42 42 42 41 41 40 40 39 39 38
7 8 9 10 11 12 12 13 13 13 13 12 12 12 12 13 12 11 10 9 9 10 10 9 10 11 12 13 14 16 18 19 20 21 21 22 22 23 24 23 22 20 19 15 12 18 23 22 23 26 25 25 24 23 24 25 26 28 31 34 33 34 36 38 37 37 37 37 37 39 42 44 43 41 41 42 43 43 43 42 41 41 40 40 40
8 8 10 11 12 13 13 14 14 14 13 13 13 13 13 13 13 11 10 10 9 10 10 9 8 10 11 12 13 14 15 17 19 20 21 22 23 23 23 24 23 22 23 19 12 18 28 28 28 30 28 27 28 27 26 26 27 28 31 33 34 34 36 37 38 38 37 37 37 37 40 43 44 41 40 41 42 43 43 42 41 41 41 41 41
9 9 10 11 12 13 14 14 15 15 15 15 14 13 13 13 13 13 12 10 10 11 11 10 9 9 10 11 12 13 13 14 16 18 19 21 23 22 22 23 24 23 22 20 15 16 25 29 28 30 29 28 29 28 27 28 28 29 31 34 35 36 36 37 38 39 39 39 38 38 38 41 44 43 40 40 41 41 42 42 41 41 41 41 41
10 10 10 11 12 13 14 15 16 16 16 16 15 14 13 13 13 14 13 11 11 12 11 11 10 9 9 10 11 12 12 12 14 16 18 20 20 21 23 23 23 23 22 22 20 18 21 26 27 28 28 27 28 30 29 29 29 29 32 34 35 36 36 36 37 39 39 40 41 42 40 40 43 44 41 40 41 40 41 40 40 40 40 41 41
9 10 11 12 13 13 15 16 16 17 16 16 15 15 14 13 12 14 14 13 13 13 12 10 10 9 9 10 10 11 11 11 13 15 17 18 19 20 22 22 22 24 24 23 23 21 23 26 27 27 27 26 27 29 30 31 31 30 32 34 35 35 34 34 36 38 37 36 38 41 41 39 41 43 42 41 40 40 40 40 39 38 39 40 41
9 11 12 13 13 14 15 15 16 16 16 15 14 15 16 16 15 15 15 14 14 14 13 11 10 10 10 10 10 10 10 11 13 15 16 17 19 20 21 22 23 25 26 25 25 25 25 26 27 27 26 25 26 27 28 29 30 31 31 32 33 33 33 31 32 34 34 32 32 36 38 37 38 43 44 41 40 39 39 39 37 37 37 39 40
8 10 12 12 14 15 15 14 15 16 16 15 14 15 17 18 18 18 16 14 13 14 13 12 12 11 11 12 11 10 9 11 13 15 15 17 19 19 20 22 24 25 26 27 27 27 27 27 28 28 26 24 24 26 26 26 27 29 30 31 32 33 33 32 31 32 31 30 29 31 34 35 37 41 43 42 40 39 39 38 37 37 37 38 39
8 10 11 13 15 15 15 14 13 15 16 16 15 15 17 17 18 17 16 15 15 15 14 14 14 13 13 13 12 10 9 11 13 15 15 16 18 20 21 23 25 27 28 29 29 27 27 28 29 27 24 24 24 25 25 25 26 26 26 27 30 32 33 33 33 32 31 30 30 30 31 32 36 39 41 41 40 39 38 38 38 38 38 38 38
10 11 12 14 14 14 14 14 14 15 16 16 15 15 16 17 17 17 17 17 17 17 16 16 16 15 15 14 13 12 10 11 13 15 16 17 18 20 23 25 26 27 29 30 29 27 26 27 27 25 23 24 25 26 26 25 25 25 24 21 23 27 30 32 33 32 30 30 31 31 31 31 33 37 38 39 39 39 38 38 38 37 37 37 37
11 12 13 14 14 14 16 17 17 16 16 16 14 14 15 16 16 16 17 17 17 17 18 19 18 17 16 16 15 14 14 13 14 16 17 18 18 21 24 26 28 28 29 30 28 26 25 24 24 24 23 23 23 25 26 24 22 24 25 21 20 23 28 29 30 30 29 30 31 31 31 32 33 34 35 36 37 37 37 37 37 36 35 34 34
12 13 14 14 15 16 16 15 15 14 14 14 12 12 13 13 14 15 15 16 17 18 19 19 19 19 18 17 17 16 17 17 18 18 18 18 18 21 25 28 30 29 30 29 26 24 23 21 21 23 21 19 20 22 23 23 22 23 25 23 21 22 26 27 29 30 29 29 29 29 30 33 34 33 34 36 37 37 37 36 36 35 35 34 33
13 13 14 15 15 14 14 14 15 14 13 12 11 11 11 13 13 14 14 16 17 18 19 19 20 20 18 18 19 18 19 21 21 20 21 21 21 22 25 28 30 31 32 31 27 23 21 19 20 20 17 16 19 21 23 24 24 25 25 23 22 22 22 21 23 29 33 31 28 28 31 32 32 31 32 35 36 37 36 36 37 36 35 34 33
14 14 14 14 13 13 14 14 15 13 12 13 13 11 11 12 13 13 14 15 16 17 17 18 19 20 19 18 19 19 19 20 20 22 24 23 22 22 26 29 31 32 32 33 31 27 23 20 21 21 18 18 21 23 24 26 25 26 26 25 24 22 19 15 13 19 30 33 29 27 31 33 32 30 30 33 36 37 38 38 36 36 35 34 33
14 14 13 13 13 13 14 14 15 14 14 17 17 14 13 13 13 14 14 15 16 17 17 18 19 20 20 19 19 20 19 19 20 23 24 22 21 23 26 30 33 33 30 30 32 31 27 23 22 22 21 22 24 25 25 27 25 25 27 27 26 24 21 17 15 16 24 32 31 26 27 31 32 30 30 32 35 36 38 39 37 35 35 34 33
14 14 13 13 12 13 14 15 17 17 16 17 18 16 15 13 12 14 16 17 18 17 17 18 19 20 21 21 21 21 20 20 22 24 23 21 22 25 28 31 32 33 33 32 30 29 28 26 24 24 25 25 26 26 26 26 25 24 25 25 26 25 21 21 22 22 24 29 31 26 23 27 31 31 31 33 34 35 36 38 37 36 36 35 35
14 15 14 13 12 13 14 14 15 16 15 16 16 16 14 13 13 15 17 19 19 18 18 19 20 21 20 18 20 23 23 23 23 24 23 23 24 26 29 31 33 35 37 35 30 27 27 27 26 28 29 29 29 30 29 29 28 26 25 24 25 27 27 27 30 29 24 26 30 24 19 24 30 30 31 34 33 33 34 35 36 36 36 36 36
14 15 15 13 13 13 13 13 13 13 14 15 14 14 13 13 14 15 17 20 20 19 20 20 19 19 17 17 21 24 25 24 24 25 25 24 24 26 29 31 34 39 40 35 30 29 31 30 31 32 33 33 34 34 31 29 30 30 29 27 25 27 29 27 27 28 25 25 28 23 15 22 29 28 30 34 32 31 32 33 33 35 35 35 36
15 17 16 15 14 14 13 14 14 14 14 15 15 15 14 13 13 14 17 19 19 19 20 19 18 19 20 21 21 22 22 23 23 24 24 23 23 25 28 31 35 40 42 37 32 33 37 38 38 39 39 39 40 40 37 33 30 30 30 29 25 23 21 17 17 23 24 23 27 26 19 20 27 28 29 31 31 30 31 31 32 33 34 34 34
17 17 17 16 16 14 15 16 17 17 16 16 16 16 14 12 12 15 16 17 17 18 19 18 19 22 24 22 20 19 19 20 21 21 21 22 23 25 26 30 35 40 43 41 39 41 43 43 43 43 43 43 44 46 46 43 38 33 29 26 25 22 16 11 11 17 21 22 25 30 25 20 23 27 26 26 29 30 30 30 32 33 34 35 35
18 17 16 17 17 16 17 18 18 18 18 16 16 14 12 11 14 16 17 16 17 17 17 18 21 23 23 21 18 16 16 18 19 19 20 22 24 23 24 28 33 37 40 43 47 50 49 46 46 44 39 37 39 43 47 47 45 41 34 27 24 22 16 13 12 14 17 20 25 29 25 20 22 25 22 20 23 28 30 29 30 32 33 34 35
17 16 16 17 17 17 19 19 19 19 18 16 12 9 8 11 15 17 17 16 15 16 16 18 21 21 19 17 16 15 15 17 18 19 21 22 21 20 22 26 28 32 38 46 50 49 47 46 48 45 36 29 31 36 41 44 44 45 42 33 27 24 20 18 17 13 9 13 23 28 24 19 21 24 21 14 11 17 27 30 29 31 33 33 33
Wind_Direction
241 260 275 283 290 296 286 265 258 267 279 286 285 282 281 279 279 281 278 278 286 285 283 290 294 290 288 291 287 284 275 266 266 261 269 280 270 253 241 231 221 216 212 208 210 212 213 215 214 212 210 211 214 212 211 210 208 204 204 205 207 208 209 211 213 214 215 215 216 218 220 223 223 224 226 227 229 233 239 246 251 255 259 265 270
238 262 274 281 285 287 288 277 262 267 274 280 291 294 287 283 285 287 284 280 278 275 276 283 285 284 283 282 284 283 270 267 270 265 275 279 264 252 241 232 229 226 222 217 215 216 217 219 218 217 215 214 215 215 213 212 211 207 206 207 209 209 210 212 214 215 217 217 217 219 222 224 225 225 226 228 231 236 242 248 252 258 262 265 268
231 253 266 276 279 281 288 283 270 271 274 274 280 287 287 286 285 284 281 276 277 280 284 288 284 284 284 279 280 278 266 266 271 264 264 261 253 253 247 235 230 228 228 225 222 221 222 223 222 222 221 218 217 217 214 213 214 212 210 210 210 211 211 212 215 216 216 218 219 220 221 224 226 227 229 230 233 238 244 249 253 257 261 263 265
237 253 266 273 276 278 278 273 272 274 275 272 263 265 271 275 278 280 276 267 271 281 287 291 290 286 283 278 277 271 260 258 262 259 251 246 249 254 249 239 229 224 228 231 228 226 225 227 227 225 225 222 221 220 217 216 215 216 216 214 213 213 213 214 215 216 217 218 220 222 223 226 229 231 233 234 236 239 244 248 250 253 256 259 261
252 261 270 271 272 272 265 262 270 273 271 267 263 268 272 270 272 275 273 260 261 274 283 291 294 290 284 278 273 267 260 257 255 252 248 246 250 251 246 240 230 226 228 233 234 231 228 229 230 230 228 226 223 222 220 219 218 218 219 219 217 215 215 216 216 217 218 218 220 222 225 228 230 232 234 236 238 241 243 246 247 249 251 254 257
260 265 270 268 268 269 265 259 260 265 270 273 277 281 279 276 272 262 257 255 261 269 273 283 292 292 287 278 270 267 266 264 257 250 248 248 249 249 245 239 234 233 232 232 234 234 232 232 232 233 233 230 226 224 223 223 221 219 220 222 221 219 218 217 218 219 220 220 221 223 225 227 228 230 232 234 236 239 242 243 245 247 250 252 254
263 266 265 264 265 264 262 259 257 264 272 278 283 285 280 278 275 264 258 262 269 270 270 279 287 287 285 277 270 267 263 260 255 250 246 245 247 246 243 240 237 238 237 234 232 232 233 233 233 233 234 234 231 228 226 226 224 222 220 222 223 223 221 220 219 221 222 224 224 225 226 227 228 230 232 233 233 236 239 241 244 246 249 251 253
261 264 264 264 265 263 263 266 267 270 273 275 277 278 276 274 272 266 263 266 271 271 274 284 287 282 276 268 271 271 261 255 253 251 246 241 243 242 240 240 239 239 239 237 235 234 232 232 233 233 233 235 233 231 229 228 227 226 223 222 223 224 224 223 222 221 223 225 226 227 228 229 230 232 233 234 234 236 239 242 244 246 248 250 252
262 260 262 265 266 267 272 276 277 277 276 274 272 272 270 269 270 267 265 269 274 277 282 285 281 277 274 271 273 268 257 252 250 249 248 245 242 239 237 238 240 240 238 237 237 237 236 233 233 234 233 233 234 232 230 229 229 228 227 225 223 223 224 225 225 224 224 226 228 229 230 231 232 234 235 237 238 240 242 244 246 248 249 250 252
275 266 265 270 270 269 270 271 273 274 273 271 268 265 264 265 269 270 271 275 278 282 286 287 282 279 280 280 275 262 255 255 253 250 250 249 244 239 239 240 241 241 238 238 237 236 237 234 233 234 234 233 233 233 232 231 230 229 229 229 227 225 225 225 225 226 227 227 228 230 231 233 234 236 238 239 241 243 244 246 248 250 251 252 253
275 273 273 272 266 265 266 268 270 271 271 271 268 266 265 266 269 272 275 277 278 279 280 283 284 281 278 277 271 262 259 260 258 253 250 249 246 243 243 243 242 241 241 240 238 237 236 234 234 235 234 233 232 232 233 232 231 230 229 229 230 229 227 226 225 225 227 229 230 231 233 234 236 237 238 240 242 243 244 245 246 247 249 252 254
270 272 272 269 265 265 268 271 269 269 271 271 272 272 274 277 279 282 283 282 279 276 275 278 280 281 278 273 270 267 262 260 259 256 253 252 249 247 245 243 241 239 240 240 237 235 235 234 235 235 234 234 234 232 232 232 232 231 230 229 229 230 230 229 227 225 226 229 232 233 233 235 236 237 238 240 242 243 244 244 244 245 247 249 252
271 274 274 275 275 276 278 273 265 266 274 278 278 277 278 279 280 282 282 282 280 278 276 276 274 276 278 275 275 275 270 264 260 255 252 251 250 248 244 240 238 237 238 239 237 234 234 234 235 236 236 235 234 233 232 232 233 232 231 230 229 229 230 230 230 228 227 227 229 232 233 234 235 236 238 240 241 242 242 242 242 243 245 247 249
284 280 275 272 268 270 271 268 264 267 278 285 282 277 277 275 271 272 275 276 279 280 276 270 262 267 277 280 278 279 274 264 257 251 248 248 248 246 243 239 238 237 237 237 236 235 232 230 233 236 237 236 234 232 232 231 232 233 232 231 230 230 230 230 231 231 230 228 228 230 232 233 234 235 237 238 239 240 240 241 243 245 246 248 248
306 294 284 281 276 272 269 269 270 270 272 274 273 271 271 269 263 263 268 271 273 277 277 270 267 278 290 290 281 283 276 259 246 241 240 243 247 249 249 247 245 244 241 236 233 233 231 229 232 236 236 236 233 231 233 233 232 233 232 232 231 230 230 231 231 232 232 231 229 229 231 232 233 234 235 236 237 238 240 241 244 248 249 250 250
313 307 299 299 296 293 288 286 288 285 279 276 274 272 268 267 266 263 264 266 270 277 283 279 273 280 294 298 300 299 282 271 256 248 245 243 244 247 249 249 254 262 260 248 236 230 227 226 228 232 235 236 233 229 231 235 235 234 234 233 231 231 230 231 232 232 233 233 232 230 230 231 232 233 233 235 236 237 238 242 245 249 251 250 249
319 313 310 312 314 316 314 309 305 301 297 292 288 282 275 277 283 282 273 268 272 282 287 287 280 272 266 276 296 290 283 321 319 299 280 263 255 258 257 252 257 266 268 260 250 236 228 229 230 232 233 231 231 229 229 233 235 236 236 235 233 232 231 231 231 232 233 233 233 233 231 231 231 232 232 233 234 236 238 242 246 248 249 248 247
319 314 316 320 324 327 329 330 323 317 312 308 307 302 295 295 295 292 286 278 278 279 282 290 293 284 274 267 262 258 278 317 323 311 299 286 280 280 275 266 258 258 260 259 256 248 239 237 236 237 237 231 228 229 230 232 234 235 236 236 235 233 232 231 231 232 232 232 233 234 233 232 232 231 231 232 233 236 238 241 244 246 246 246 245
315 313 320 325 328 333 336 336 332 327 323 321 323 322 321 322 308 298 302 298 285 271 274 289 297 296 292 279 266 262 268 279 283 291 303 292 287 288 281 273 266 261 264 265 262 254 247 244 239 240 246 243 236 235 233 232 234 236 238 238 237 235 233 232 232 232 232 231 233 234 234 233 232 232 232 233 234 235 237 239 241 242 243 243 244
308 308 317 330 331 336 339 336 335 334 330 331 333 328 330 335 321 306 311 308 293 275 277 290 295 297 300 294 285 281 276 274 267 256 263 283 287 288 280 273 270 263 262 268 270 262 255 254 249 246 250 251 247 244 241 238 238 237 237 240 239 237 236 234 233 233 232 232 233 234 235 234 233 234 234 234 235 235 236 237 237 237 239 240 242
305 306 312 325 326 330 338 336 335 335 334 336 337 333 332 332 323 317 318 309 297 287 286 289 291 294 300 300 297 297 294 291 281 258 246 266 283 283 282 280 273 265 261 264 269 267 262 259 257 254 253 253 252 250 249 249 246 241 237 238 239 238 238 237 235 234 233 232 233 234 235 235 234 235 236 235 235 235 235 236 235 235 236 238 241
303 306 309 313 315 322 333 334 333 334 336 337 338 338 336 333 327 325 322 312 305 300 296 296 297 299 302 304 303 304 303 300 297 287 274 267 268 277 286 291 286 279 274 268 266 266 265 262 259 260 258 256 257 255 254 252 251 250 243 237 237 238 239 240 238 236 235 234 233 234 234 235 235 235 236 236 235 235 235 234 235 236 237 239 241
302 303 304 308 314 323 328 325 327 330 333 335 337 339 339 335 330 324 320 316 315 315 311 310 312 311 311 310 307 307 307 303 302 304 300 279 277 284 289 296 298 294 288 281 275 268 264 262 259 261 261 259 260 259 259 255 250 254 252 239 235 238 240 241 241 239 237 236 234 234 234 235 236 235 235 236 236 235 234 233 234 236 238 240 242
299 297 301 312 318 322 319 315 320 323 323 328 331 334 334 332 330 328 325 323 324 326 323 323 324 321 320 322 320 317 313 310 306 300 294 286 285 286 291 296 295 290 289 287 283 273 262 260 261 264 265 264 264 262 263 262 253 252 255 247 236 236 240 241 242 242 240 239 237 235 235 235 236 236 235 236 237 237 235 234 234 236 238 240 242
301 303 311 318 317 315 311 308 312 313 314 319 322 325 328 329 330 329 328 329 330 331 328 327 329 327 327 329 327 324 319 317 313 304 299 294 291 288 292 295 290 285 287 283 278 274 265 259 260 265 267 267 268 265 263 264 255 247 250 251 239 233 237 239 240 242 242 241 239 237 236 235 236 237 236 236 237 238 237 236 235 235 237 239 241
306 313 315 312 310 308 304 302 306 307 308 313 316 319 322 325 327 325 324 326 328 331 331 330 331 329 330 331 329 326 322 320 316 309 305 302 298 298 297 293 285 282 283 277 272 271 267 263 263 265 269 268 269 268 264 262 256 246 244 249 246 237 237 238 239 242 243 242 241 240 238 237 236 237 237 237 236 237 238 238 237 236 237 239 240
304 306 306 305 305 303 299 300 300 301 304 309 312 315 318 320 319 319 319 322 326 329 330 332 331 329 329 331 331 329 325 322 319 312 309 306 301 297 293 290 288 284 281 274 268 265 265 266 264 264 267 270 270 270 266 264 260 251 244 245 249 247 242 239 239 242 243 242 242 242 240 240 239 239 239 239 238 238 238 239 239 238 238 239 240
300 301 304 305 305 302 300 299 297 298 301 305 308 310 314 315 314 315 315 316 321 323 324 327 328 328 328 330 331 328 326 325 321 317 314 311 307 300 291 283 281 284 285 279 270 266 266 264 265 266 265 266 268 267 266 263 260 255 249 245 247 249 246 242 240 242 242 242 243 244 242 242 243 242 242 242 241 240 239 239 240 240 240 240 240
303 304 305 304 304 303 301 299 296 295 294 295 300 304 308 310 310 310 309 308 310 312 317 322 323 324 325 328 329 326 326 326 323 322 319 315 313 308 299 289 279 271 276 281 272 269 268 264 265 269 268 264 261 262 263 262 262 257 251 248 246 246 245 243 243 242 240 240 242 244 244 243 244 245 244 244 243 241 240 240 240 240 241 241 241
305 304 303 303 302 301 300 298 294 291 289 289 292 295 299 304 305 305 302 299 299 304 311 314 316 322 324 325 326 325 326 326 324 322 320 318 316 312 307 299 286 271 269 279 275 270 271 267 263 265 267 265 261 260 259 259 263 257 248 247 249 246 245 245 245 245 244 242 242 243 244 244 245 246 246 245 244 243 242 241 240 241 242 242 243
293 299 301 298 298 298 297 297 294 293 292 291 292 292 293 297 300 300 297 294 291 295 303 308 312 319 323 324 325 326 326 325 323 322 321 321 320 315 312 307 298 284 275 273 274 274 272 268 266 265 264 263 263 261 258 256 258 254 245 246 250 249 247 247 246 246 247 246 243 241 242 245 247 246 246 246 246 245 244 243 242 242 242 243 244
275 287 292 290 291 293 292 293 293 293 295 294 292 292 292 294 295 293 293 295 294 295 300 304 311 319 323 325 326 326 326 323 322 324 324 324 322 317 314 309 306 300 288 276 272 277 275 270 268 267 265 263 263 259 256 258 257 251 247 249 252 250 248 247 248 247 246 247 244 239 238 242 245 245 245 246 247 247 246 244 243 243 242 243 243
258 267 276 279 282 286 288 289 289 291 293 294 296 297 294 293 293 293 292 290 292 297 300 305 313 320 321 322 324 324 324 323 321 323 325 325 322 317 316 312 306 305 300 289 283 283 282 276 269 267 266 263 261 257 254 256 255 250 248 251 253 250 246 246 246 246 246 245 242 239 237 239 243 245 245 245 246 247 246 245 243 242 241 241 241
253 256 266 273 277 281 284 285 287 289 290 292 296 296 294 295 294 294 294 292 293 295 297 303 311 316 316 317 320 320 320 320 319 324 326 325 323 318 316 315 310 308 309 303 295 290 287 282 272 268 268 262 256 254 252 252 253 250 248 250 251 249 246 245 245 246 247 245 242 240 240 239 241 243 245 245 245 245 245 244 242 240 239 238 239
263 268 270 270 270 276 280 280 281 282 285 288 292 290 287 292 294 291 292 293 293 292 293 299 303 307 311 311 312 314 318 319 316 323 328 324 324 324 319 317 314 313 314 311 305 297 288 281 273 267 266 259 252 253 252 252 252 250 247 248 249 247 244 243 245 246 245 243 242 240 238 238 239 242 245 246 244 244 245 243 241 239 237 237 237
276 281 280 276 277 280 279 279 282 282 282 282 284 287 286 285 284 284 286 288 288 289 292 296 298 300 302 302 304 306 310 316 316 320 325 324 324 326 323 319 317 317 316 314 311 306 297 286 275 268 264 257 252 253 254 252 252 249 245 244 244 243 243 244 245 244 240 239 240 238 235 236 240 243 246 245 243 243 244 242 240 238 236 236 237
287 290 293 292 292 287 280 281 287 290 290 284 277 283 291 288 282 282 285 285 283 285 289 293 295 295 295 294 295 297 299 307 312 313 316 319 323 327 326 321 318 318 317 315 313 311 305 294 282 273 265 259 255 254 251 248 249 249 244 240 241 242 242 243 243 240 236 237 240 239 236 237 241 244 244 243 242 243 243 241 240 238 237 236 236
303 298 299 297 294 293 289 289 290 292 298 293 277 278 291 291 283 282 286 284 283 285 287 290 292 291 290 288 287 286 288 297 304 307 310 313 318 324 325 322 319 318 317 316 314 312 308 300 290 278 267 261 257 255 251 246 244 247 244 239 239 240 238 237 236 234 234 237 241 241 238 236 238 241 241 240 241 241 241 239 238 238 237 237 237
306 299 295 291 294 302 305 304 303 300 301 297 284 278 287 289 282 280 282 285 289 292 290 290 289 287 286 283 281 278 277 289 300 302 306 311 314 319 323 322 319 317 317 315 313 310 308 303 294 282 270 263 257 253 252 248 245 249 247 238 234 234 233 231 229 228 230 234 238 240 239 237 237 239 240 239 239 239 239 238 237 238 238 237 237
295 290 288 291 296 302 302 301 301 298 295 296 288 277 281 286 282 279 283 287 291 291 288 289 289 285 282 278 275 271 268 283 301 304 307 312 312 315 319 320 317 315 315 313 309 307 306 301 295 287 274 264 257 252 251 247 243 246 244 238 232 228 226 226 226 226 226 228 232 235 237 237 237 239 241 240 238 237 236 236 237 237 236 235 234
283 283 286 292 294 295 296 297 299 299 299 300 291 272 272 278 276 278 284 286 286 285 285 288 287 283 280 275 273 271 267 277 297 307 311 316 315 314 316 317 315 313 313 311 306 303 302 299 297 293 281 266 256 250 246 242 238 240 241 237 235 230 225 225 225 224 224 224 227 229 231 232 232 234 238 238 235 233 232 233 234 234 233 232 231
275 279 282 286 287 290 295 299 301 300 295 291 284 276 275 273 270 276 280 278 282 285 285 288 288 284 281 277 275 275 272 278 292 303 310 315 318 317 317 316 313 310 309 306 300 297 298 297 297 296 289 276 264 251 245 242 239 238 237 234 235 234 227 224 225 224 223 221 222 225 226 226 227 230 235 236 232 228 228 229 231 231 230 229 229
268 271 275 280 283 285 289 294 296 293 286 283 284 284 284 280 274 272 272 273 281 284 283 287 290 288 287 283 280 281 277 278 288 301 309 312 315 317 318 318 318 315 309 303 296 291 290 290 291 290 287 284 279 266 253 247 241 236 233 231 232 232 224 219 221 223 222 219 218 224 225 223 223 225 230 232 229 226 226 228 229 229 230 230 231
266 269 273 277 281 284 286 287 286 284 284 285 285 282 280 283 280 274 273 275 279 281 283 288 292 294 295 292 286 284 281 280 289 301 307 308 310 313 316 320 324 323 317 309 300 291 287 285 284 282 280 280 282 276 262 252 244 238 235 231 229 226 222 220 218 216 219 218 215 220 226 224 222 222 225 227 227 226 227 228 229 229 230 231 231
267 269 270 273 279 285 285 282 282 282 281 280 283 283 280 279 276 275 278 279 280 280 283 290 297 298 298 296 293 290 289 291 296 300 302 304 308 312 315 321 325 325 323 320 311 300 293 286 278 274 275 274 274 274 269 260 250 242 237 231 225 222 221 223 224 220 216 213 211 214 222 222 218 218 221 224 225 225 227 229 230 230 231 231 231
270 270 268 267 274 280 280 280 285 288 283 277 275 276 279 281 280 279 279 279 280 278 280 290 300 302 303 303 300 298 297 297 297 297 297 301 309 313 317 323 325 325 325 324 318 311 305 296 285 279 278 275 271 270 271 265 257 249 242 233 222 218 221 226 227 224 218 214 210 210 219 220 214 215 221 223 223 225 227 229 230 231 232 231 231
270 273 272 270 272 275 276 277 281 283 282 280 276 275 284 291 289 285 283 281 277 272 277 291 299 303 311 311 300 296 296 297 299 298 296 299 308 314 319 324 325 325 325 323 317 313 309 302 294 286 281 276 270 268 267 263 257 251 248 244 231 221 223 229 230 224 218 215 211 207 219 223 214 215 223 223 222 225 227 228 230 231 233 233 232
264 269 271 271 271 271 273 275 275 275 279 282 281 281 287 291 290 292 291 285 275 267 276 289 292 298 312 315 306 298 295 299 306 302 295 299 310 315 319 323 324 325 325 323 316 312 310 306 299 291 283 275 267 262 259 257 255 253 251 248 240 226 222 228 233 225 215 212 211 210 219 225 214 213 222 223 221 224 226 227 228 229 231 232 232
260 264 267 271 271 270 274 276 276 274 275 278 281 282 285 290 298 303 300 287 273 269 278 285 288 299 313 317 312 303 299 307 315 308 298 304 314 317 320 322 322 324 325 323 319 316 316 314 308 300 290 277 265 258 254 251 249 251 252 246 234 223 214 210 223 222 212 208 208 207 213 223 213 210 218 220 218 222 226 227 228 229 230 231 233
260 263 268 274 273 270 272 275 275 273 273 277 282 280 282 295 306 309 305 294 280 274 278 284 289 300 311 315 313 308 308 315 318 310 305 311 316 318 321 322 320 321 324 323 322 322 323 323 319 314 303 284 264 253 250 247 243 242 245 243 230 220 213 211 217 214 208 211 210 205 208 220 216 210 213 216 217 223 226 226 227 229 230 231 232
266 267 270 275 276 274 273 273 273 270 271 280 288 289 298 309 311 310 305 296 285 279 279 285 292 298 305 314 320 317 315 316 314 311 312 316 317 318 320 321 318 318 323 325 325 325 326 327 327 323 315 293 264 250 246 244 239 235 234 234 228 219 213 215 217 210 204 215 212 205 205 215 216 211 207 204 211 225 226 227 227 227 229 230 228